Showing default

TIANMU-1 11, 58645

Orbit data source: Space-Track

TIANMU-1 11, 58645 is a payload satellite owned by Hangtian Tianmu (CN) in SSO that was launched on Mon, 25 Dec 2023 UTC via a KUAIZHOU-1A launch vehicle from the Jiuquan Satellite Launch Center, China (JSC). Payload-class satellites include a variety of spacecraft equipped with specific instruments for various scientific and technological missions. These include communications satellites like Starlink; space stations such as the ISS; scientific satellites like the Hubble; Earth observation satellites from companies like Planet Labs, Umbra, and HawkEye 360; GPS; miniature CubeSats for education and research; and military/defense satellites.

Loading next visibility...
Identifier
58645, 2023-205A
Orbit
SSO
Country
Flag of CNCN / PRC
Related business
Manufacturer
Hangtian Tianmu
Mission
Operational Commercial Weather
Bus & Motor
TIANMU, Unknown motor
Mass
50 kg wet, ~50 kg dry
Launch date (UTC)
2023-12-25 (2 years ago)
Launch vehicle
KUAIZHOU-1A
Launch site
Jiuquan Satellite Launch Center, China (JSC)
Object type
Payload
Rocket body
Debris
Shape & HBR
Box, 0.8 m
Radar Cross Section
2.000 m², Large (>1 m²)

Expand to show TLE details & history
Last TLE update: 1 day ago

TLE from 1 day ago
0 TIANMU-1 11
1 58645U 23205A   26172.50950514  .00004206  00000-0  16121-3 0  9993
2 58645  97.3448 193.9985 0008423   2.1524 357.9750 15.27032570138189
Epoch: 2026-06-21T12:13Z
TLE epoch observation values (Epoch: 2026-06-21T12:13:41.244Z)
Latitude
0.00001°
Longitude
100.8679°
Altitude
482.012 km
Speed
7.628 km/s
True Right ascension
12h 55m 59s
True Declination
0° 00' 00"
Sunlit
Object was in daylight at epoch
Visualization orbit readout
Latitude
Unknown
Longitude
Unknown
Altitude
Unknown
Speed
Unknown
Apparent Right ascension
Unknown
Apparent Declination
Unknown
Sunlit
N/A
Visualization observer readout
Local Sidereal Time
23:07:41
Azimuth
Unknown
Elevation
Unknown
Doppler factor
Unknown
Orbital elements
Apogee altitude
487.421 km
Perigee altitude
475.865 km
Semi-major axis
6,859.78 km
Eccentricity
0.00084
Inclination
97.3448°
RAAN
193.9985°
Arg. of periapsis
2.1524°
True anomaly
357.97159°
Mean anomaly
357.975°
Eccentric anomaly
357.97329°
Mean motion
3.82013 °/min
Orbital period
94.24 mins
BSTAR
0.00016121
Loading maneuver chart data...
Computing Atmospheric mass density...
Loading historical data...
Loading historical data...
Loading historical data...
Loading historical data...
Loading historical data...
Loading historical data...
Loading historical data...
Other satellites on launch #205 in the year 2023 (2023-12-25 UTC)

Documentation

Showing up to 5 results
|